Temperature
17 17 17 17 17 18 18 18 18 18 17 17 17 17 17 17 17 17 17 17 17 17 17 17 18 18 18 18 18 18 18 18 18 18 18 18 18 18 18 18 18 17 18
17 17 17 17 17 17 17 17 17 17 17 17 17 17 17 17 17 17 17 17 17 17 17 17 17 17 17 17 17 18 18 18 18 18 17 17 17 17 18 17 17 17 18
17 17 17 17 17 17 17 17 17 17 17 17 17 17 17 17 17 17 17 17 17 17 17 17 17 17 17 17 17 17 17 17 17 17 17 17 17 17 17 17 17 17 17
16 16 16 17 17 17 17 17 17 17 17 17 17 17 17 17 17 17 17 17 17 17 17 17 17 17 17 17 17 17 17 17 17 17 17 17 17 17 17 17 17 17 17
16 16 16 17 17 17 17 17 17 17 17 17 17 17 17 17 17 17 17 17 17 17 17 17 17 17 17 17 17 17 17 17 17 17 17 17 17 17 17 17 17 17 17
16 16 16 17 17 17 17 17 17 17 17 17 17 17 17 17 17 17 17 17 17 17 17 17 17 17 17 17 17 17 17 17 17 17 16 16 17 17 17 17 17 17 17
16 16 16 17 17 17 17 17 17 17 17 17 17 17 17 17 17 17 17 17 17 17 17 17 17 17 16 16 17 17 17 17 16 16 16 16 16 17 17 17 17 17 17
16 16 16 17 17 17 16 16 16 16 16 16 16 16 17 17 16 17 17 16 17 17 17 16 16 16 16 16 16 17 17 16 16 16 16 16 16 17 17 17 17 17 17
16 16 16 16 16 16 16 16 16 16 16 16 16 16 16 16 16 16 16 16 16 16 16 16 16 16 16 16 16 16 16 16 16 16 16 16 16 16 16 17 16 17 17
16 16 16 16 16 16 16 16 16 16 16 16 16 16 16 16 16 16 16 16 16 16 16 16 16 16 16 16 16 16 16 16 16 16 16 16 16 16 16 16 16 16 16
16 16 16 16 16 16 16 16 16 16 16 16 16 16 16 16 16 16 16 16 16 16 16 16 16 16 16 16 16 16 16 16 15 15 15 16 16 16 16 16 16 16 16
16 16 16 16 16 16 16 16 16 16 16 16 16 16 16 16 16 16 16 16 16 16 16 16 16 16 16 15 16 16 15 15 15 15 15 15 15 16 16 16 16 16 16
16 16 16 16 16 16 16 16 16 16 16 16 16 16 16 16 16 15 15 15 15 15 15 15 15 15 15 15 15 15 15 15 15 15 15 15 15 15 15 15 15 16 16
16 16 16 16 16 16 16 16 16 16 16 16 16 16 16 15 15 15 15 15 15 15 15 15 15 15 15 15 15 15 15 15 15 15 15 15 15 15 15 15 15 15 15
16 16 16 16 16 16 16 16 16 16 16 16 16 16 15 15 15 15 15 15 15 15 15 15 15 15 15 15 15 15 15 15 15 15 15 15 15 15 15 15 15 15 15
17 16 16 16 16 16 16 16 16 16 16 16 16 15 15 15 15 15 15 15 15 15 15 15 15 15 15 15 15 15 15 15 15 14 14 14 15 15 15 15 15 14 15
17 17 16 16 16 16 16 16 16 16 16 16 15 15 15 15 15 15 15 15 15 15 15 15 15 15 15 15 15 14 14 14 14 14 14 14 14 14 14 14 14 14 14
17 17 17 16 16 16 16 16 16 16 16 16 15 15 15 15 15 15 15 15 15 14 14 14 14 14 14 14 14 14 14 14 14 14 14 14 14 14 14 14 14 14 14
17 17 17 16 16 16 16 16 16 16 16 16 15 15 15 15 15 15 15 15 14 14 14 14 14 14 14 14 14 14 14 14 14 14 14 14 14 13 13 14 14 14 13
17 17 17 16 16 16 16 16 16 16 15 15 15 15 15 15 15 15 15 15 14 14 14 14 14 14 14 14 14 14 14 14 14 14 14 14 14 13 13 13 13 13 13
17 17 17 16 16 16 16 16 16 15 15 15 15 15 15 15 15 15 15 14 14 14 14 14 14 14 14 14 14 14 14 13 13 13 13 13 13 13 13 13 13 13 12
17 16 16 16 16 16 16 16 16 15 15 15 15 15 15 15 15 15 15 14 14 14 14 14 14 14 13 13 14 14 14 14 13 13 13 13 13 13 13 13 13 12 12
17 16 16 16 16 16 16 16 16 16 15 15 15 15 15 15 15 15 15 14 14 14 14 14 14 14 13 13 13 14 15 15 13 13 13 13 13 13 13 13 12 12 12
17 17 16 16 16 16 16 16 16 15 15 15 15 15 15 15 15 15 15 14 14 14 14 14 14 13 13 13 13 13 14 14 14 14 13 13 13 13 12 12 12 12 12
17 17 16 16 16 16 16 16 15 15 15 15 15 15 15 15 15 15 14 14 14 14 14 13 13 13 13 13 13 13 13 13 13 14 13 12 12 12 12 12 12 12 12
17 16 16 16 16 16 16 15 15 15 15 15 15 15 15 15 15 14 14 14 14 14 14 14 13 13 13 13 13 13 13 13 13 13 14 13 12 12 12 12 12 12 12
Wind_Speed
2 3 4 3 5 6 6 7 7 7 7 7 8 8 8 9 9 9 8 8 8 8 8 8 8 8 8 8 8 8 8 8 8 8 8 8 8 7 7 6 4 5 7
2 3 4 4 5 6 6 7 6 7 7 7 7 7 8 9 8 9 8 8 8 9 8 8 8 8 9 8 8 8 8 8 8 8 7 8 9 8 7 6 5 6 7
3 4 4 5 6 6 6 7 7 8 8 8 8 8 9 9 9 9 9 9 9 9 9 9 9 9 9 9 9 9 9 9 8 6 4 6 8 8 7 6 6 6 6
4 4 6 6 5 6 6 7 8 8 8 8 9 9 9 9 9 9 9 9 9 9 9 9 9 9 9 9 9 9 9 9 7 4 4 6 6 9 7 6 6 6 6
5 5 7 6 7 7 7 8 8 8 9 9 9 9 9 9 9 9 9 9 9 10 9 9 9 10 10 10 9 9 9 8 6 4 6 6 6 8 6 6 5 6 6
5 5 7 6 7 7 8 9 8 9 9 9 8 9 9 9 9 9 9 9 9 9 10 9 9 9 9 9 9 9 8 6 4 6 5 5 6 7 6 5 5 5 5
5 6 7 7 7 7 8 9 9 9 8 9 9 9 9 9 9 9 9 9 9 9 9 9 9 9 10 9 10 9 8 5 6 6 6 6 7 7 6 5 5 5 5
5 6 8 8 8 7 8 9 8 8 8 8 8 9 9 9 9 9 9 9 9 10 10 10 9 10 10 10 10 9 8 6 6 7 6 7 8 6 6 6 5 5 6
5 5 6 7 8 9 9 9 8 8 8 8 8 8 9 9 9 9 9 9 10 10 10 10 10 11 11 11 11 10 9 8 6 6 7 7 7 6 6 6 6 6 6
5 5 5 6 6 7 8 9 8 8 8 8 8 8 7 7 8 8 9 9 9 10 10 11 11 11 11 11 11 9 7 5 8 7 7 8 8 7 6 7 7 7 7
5 5 5 5 5 6 6 7 6 7 7 6 7 7 4 5 6 7 10 10 10 10 10 11 10 9 8 10 10 7 5 7 8 8 8 10 8 8 8 8 9 9 9
5 5 4 4 5 5 5 5 5 5 5 5 5 5 4 5 6 7 9 9 9 9 10 9 8 6 5 7 7 4 6 7 7 8 10 10 9 9 10 10 11 11 11
4 5 4 4 4 4 4 4 4 4 4 5 5 5 4 4 4 5 5 6 6 6 7 7 5 6 7 7 6 7 7 7 7 8 11 11 10 10 11 12 12 12 13
4 4 4 3 3 4 4 4 3 3 3 4 4 5 4 3 4 4 4 5 5 5 5 5 5 7 7 7 7 7 8 7 8 8 11 13 12 11 12 12 12 13 13
4 4 3 3 3 4 4 3 3 3 3 3 4 3 4 3 3 3 4 4 4 5 5 5 5 6 6 7 7 7 7 8 8 8 9 13 13 12 12 12 13 12 12
3 3 3 3 3 3 3 3 3 2 2 3 2 2 3 3 3 3 3 4 4 5 5 5 6 5 5 5 6 7 7 7 8 8 8 10 12 13 13 13 13 12 12
3 3 4 3 3 3 3 2 2 2 2 2 2 2 3 3 3 3 3 3 4 4 4 4 6 5 5 5 5 6 6 7 7 7 8 7 9 12 13 13 13 12 12
3 4 4 3 3 3 3 2 2 2 2 2 2 1 2 3 3 3 2 3 4 4 3 3 3 4 4 3 4 4 4 5 6 6 6 7 7 7 10 12 12 12 11
4 4 5 4 4 4 3 3 2 1 1 1 1 1 1 3 3 3 2 2 3 3 2 2 2 2 3 3 3 3 4 4 5 5 6 6 7 6 7 9 11 12 11
4 4 4 4 4 4 3 2 2 1 1 1 1 1 1 2 2 2 2 2 2 2 2 2 2 2 2 2 3 3 3 3 4 4 5 5 5 6 6 6 7 9 11
4 4 5 5 5 4 3 3 2 2 1 1 1 2 2 2 2 2 2 2 2 1 2 2 2 2 1 1 2 3 3 3 3 4 3 3 5 5 5 6 5 6 7
5 5 5 5 5 5 3 3 2 2 1 1 1 1 2 2 2 2 2 2 2 2 2 3 3 1 1 1 1 2 2 3 2 2 2 3 3 4 4 5 5 5 6
6 6 5 6 6 5 4 3 2 2 1 2 2 1 1 2 3 3 3 2 2 2 2 3 3 3 2 1 1 2 1 1 2 2 2 2 3 2 3 3 4 5 5
7 6 6 6 6 6 6 5 4 3 3 2 2 2 2 3 3 4 4 4 3 2 3 3 3 3 3 2 1 1 2 1 2 2 2 1 2 1 2 2 2 3 4
7 6 6 6 5 5 5 5 5 4 3 2 2 3 3 3 3 4 4 4 4 3 3 3 3 3 3 3 2 2 1 1 3 2 2 2 2 1 1 1 1 2 3
6 6 6 6 5 5 5 5 6 5 4 4 3 3 3 3 3 4 4 4 4 4 4 4 4 4 3 3 3 3 3 2 3 3 3 3 2 2 1 1 1 1 1
Wind_Direction
62 60 66 68 82 81 88 88 87 90 91 91 93 94 93 92 92 90 89 88 85 78 74 74 74 73 74 75 77 78 76 75 76 75 74 76 76 75 77 82 92 100 90
72 74 82 82 87 86 89 86 86 91 92 91 90 92 94 93 92 91 88 86 83 78 74 74 74 73 73 73 76 77 76 75 76 74 77 87 80 73 70 68 56 70 79
83 87 100 88 88 87 88 87 84 87 89 91 90 89 90 90 87 86 85 85 81 77 72 70 73 73 72 71 73 76 75 73 73 74 82 81 84 78 70 68 67 71 74
86 85 87 92 86 84 88 87 83 80 84 87 87 86 86 86 85 84 83 81 79 77 73 72 72 71 70 71 73 74 72 70 66 57 70 67 72 79 72 68 66 69 71
87 85 88 86 88 86 89 90 89 84 86 87 86 84 82 84 86 86 83 79 77 76 75 74 72 71 70 70 72 72 70 69 66 57 62 62 65 74 70 70 68 72 73
90 90 94 83 89 90 92 95 94 93 92 89 89 85 82 82 82 84 83 79 78 76 74 72 74 73 72 71 71 69 66 58 64 65 63 63 68 74 72 73 70 74 76
90 90 94 84 89 90 89 93 93 95 94 91 89 85 82 83 84 82 81 78 76 73 73 73 75 74 72 70 68 65 60 45 57 64 64 66 66 69 73 74 71 73 79
89 86 92 94 88 86 83 84 84 92 91 89 85 81 81 82 85 84 82 79 77 75 75 72 74 74 71 68 65 61 49 24 62 62 66 66 64 65 70 71 71 74 81
93 90 90 97 102 96 81 74 75 82 85 84 81 80 79 80 82 83 84 80 80 77 74 71 71 72 69 67 64 59 51 31 45 53 60 61 64 66 67 68 74 76 80
101 97 96 95 96 102 99 81 75 79 81 83 83 81 80 90 93 90 89 81 80 78 75 74 71 70 69 66 62 56 43 37 47 50 51 58 58 66 68 70 76 75 77
106 102 103 102 97 93 92 95 95 95 91 97 100 98 99 86 83 89 75 75 78 78 77 76 74 70 72 73 63 50 34 48 50 48 51 51 56 65 69 70 72 75 75
113 110 109 112 106 101 96 96 90 89 90 85 83 86 82 77 74 79 87 83 83 86 88 81 79 81 67 66 70 55 50 50 50 54 53 49 55 65 72 74 75 76 75
118 118 113 115 109 103 103 92 85 87 83 82 80 82 80 84 86 84 88 102 98 96 87 89 82 67 64 59 53 55 50 48 51 54 50 47 56 66 73 74 75 76 74
121 124 121 120 120 116 111 108 106 106 94 82 79 78 76 76 74 76 78 79 84 81 79 75 72 73 64 60 57 57 60 55 56 59 54 47 53 64 70 73 75 75 74
133 142 138 135 131 129 118 114 118 106 95 92 82 79 79 84 81 85 81 81 83 84 84 78 76 71 64 57 55 57 61 61 61 62 66 56 51 57 64 70 72 74 75
149 150 144 149 143 144 140 139 121 110 110 97 93 93 93 90 90 90 85 84 79 77 77 82 79 74 69 63 61 61 60 62 62 62 62 67 60 55 58 64 68 70 72
170 161 154 153 153 155 145 130 118 115 110 109 103 93 97 93 94 95 83 86 86 86 88 81 81 75 70 69 67 66 64 57 60 63 61 58 66 67 61 61 65 70 70
185 168 155 163 169 160 149 144 135 123 99 91 89 80 89 99 96 95 97 97 94 93 93 88 84 82 78 71 69 67 69 64 58 60 64 67 63 66 70 63 65 69 72
190 175 166 166 170 163 155 144 134 124 109 98 103 91 91 106 110 112 103 104 103 102 96 100 99 92 87 77 77 73 68 68 64 59 61 61 68 66 71 75 73 69 69
188 181 169 163 170 161 166 167 159 145 124 120 132 143 120 123 118 114 123 121 117 122 121 129 128 119 93 91 89 79 68 77 72 58 54 56 59 62 60 66 77 77 70
185 189 180 184 179 173 177 186 187 183 190 184 169 177 173 168 159 148 153 141 132 135 151 151 143 141 128 137 139 121 100 81 72 71 58 57 62 59 59 62 62 68 80
197 202 198 197 193 188 190 194 190 188 200 198 203 204 198 188 179 182 181 170 163 164 181 180 180 193 158 188 226 201 172 146 101 77 73 61 63 73 58 56 64 66 63
202 205 208 207 201 198 194 187 167 164 181 191 207 208 206 204 203 203 195 192 189 195 198 205 203 206 197 193 275 284 260 218 145 127 86 82 67 66 68 60 59 62 68
205 205 209 208 205 200 195 201 206 213 218 222 210 198 197 202 206 211 205 203 202 212 217 219 217 226 219 210 199 286 312 320 239 183 163 129 86 65 65 73 64 65 68
202 202 207 206 205 200 205 206 215 223 228 219 206 200 205 203 211 215 216 211 210 216 223 225 225 233 228 234 220 201 212 240 261 249 207 183 168 148 106 84 91 75 76
198 196 201 202 201 201 208 211 216 221 225 223 225 218 214 208 215 218 217 217 215 217 222 226 226 224 233 231 233 227 228 233 234 238 234 210 205 178 175 173 181 134 111
Height
1537 1536 1535 1536 1536 1535 1535 1535 1535 1535 1535 1535 1535 1535 1535 1535 1535 1535 1535 1534 1534 1534 1534 1534 1533 1533 1533 1533 1532 1532 1532 1532 1531 1531 1531 1531 1531 1531 1530 1531 1531 1532 1531
1538 1537 1536 1537 1537 1536 1536 1536 1536 1537 1537 1536 1537 1537 1536 1536 1536 1536 1536 1536 1536 1535 1535 1535 1534 1534 1534 1534 1533 1533 1533 1533 1532 1532 1532 1532 1532 1532 1532 1532 1532 1532 1532
1538 1538 1537 1537 1537 1537 1537 1537 1538 1538 1538 1538 1538 1538 1538 1538 1538 1538 1537 1537 1537 1537 1536 1536 1536 1536 1535 1535 1534 1534 1534 1534 1533 1533 1533 1534 1533 1533 1533 1533 1533 1533 1533
1539 1539 1539 1538 1538 1538 1538 1538 1539 1539 1539 1539 1539 1539 1539 1539 1539 1539 1539 1539 1538 1538 1538 1537 1537 1537 1536 1536 1535 1535 1535 1534 1534 1534 1535 1535 1534 1534 1533 1533 1533 1533 1533
1540 1540 1539 1539 1539 1539 1539 1539 1540 1540 1540 1540 1540 1540 1540 1540 1540 1540 1540 1540 1540 1539 1539 1539 1538 1538 1538 1537 1537 1536 1536 1535 1535 1536 1536 1535 1535 1535 1534 1534 1534 1534 1534
1541 1541 1540 1540 1540 1541 1541 1541 1541 1541 1541 1541 1541 1541 1541 1542 1542 1542 1541 1541 1541 1541 1540 1540 1540 1539 1539 1538 1538 1538 1537 1537 1537 1537 1536 1536 1536 1535 1535 1535 1535 1535 1534
1542 1542 1542 1542 1542 1542 1542 1542 1542 1542 1542 1542 1543 1543 1543 1543 1543 1543 1543 1543 1542 1542 1542 1541 1541 1540 1540 1540 1539 1539 1538 1538 1538 1538 1537 1537 1536 1536 1536 1536 1535 1535 1535
1544 1543 1543 1543 1543 1543 1543 1543 1543 1543 1543 1544 1544 1544 1545 1545 1545 1544 1544 1544 1544 1544 1543 1543 1542 1542 1541 1541 1541 1540 1540 1539 1540 1539 1538 1538 1537 1536 1536 1536 1536 1536 1536
1545 1545 1545 1545 1544 1544 1544 1544 1545 1545 1545 1545 1545 1546 1546 1546 1546 1546 1546 1545 1545 1545 1545 1544 1544 1543 1543 1543 1542 1541 1541 1540 1541 1540 1540 1539 1538 1537 1537 1537 1536 1536 1536
1546 1546 1546 1546 1547 1547 1547 1546 1546 1546 1547 1547 1547 1547 1547 1548 1548 1547 1547 1547 1546 1546 1546 1546 1545 1545 1544 1544 1543 1543 1542 1542 1542 1541 1541 1539 1538 1538 1538 1537 1537 1537 1536
1547 1547 1547 1547 1548 1548 1549 1548 1548 1548 1548 1548 1548 1548 1549 1549 1549 1549 1548 1548 1548 1548 1547 1547 1547 1546 1546 1545 1545 1544 1544 1544 1543 1542 1541 1540 1539 1539 1538 1538 1538 1537 1536
1548 1548 1548 1549 1549 1550 1550 1550 1550 1550 1550 1550 1550 1550 1550 1550 1550 1550 1549 1549 1549 1549 1549 1548 1548 1548 1548 1547 1546 1545 1546 1545 1544 1544 1543 1541 1541 1540 1539 1539 1538 1538 1537
1549 1549 1549 1550 1550 1550 1551 1551 1551 1551 1551 1551 1551 1551 1551 1551 1551 1551 1551 1551 1550 1550 1550 1550 1550 1550 1549 1548 1548 1548 1547 1546 1546 1545 1544 1543 1542 1541 1541 1540 1539 1539 1537
1550 1550 1550 1551 1551 1551 1552 1552 1552 1553 1553 1553 1553 1553 1553 1552 1552 1552 1552 1552 1551 1551 1551 1551 1551 1551 1551 1550 1550 1549 1548 1548 1547 1546 1545 1544 1543 1543 1542 1541 1541 1540 1539
1550 1551 1551 1551 1552 1552 1552 1552 1553 1553 1554 1554 1553 1553 1553 1553 1553 1553 1553 1552 1552 1552 1552 1552 1552 1552 1552 1551 1551 1550 1550 1549 1549 1548 1547 1546 1545 1544 1544 1542 1542 1541 1541
1551 1552 1552 1552 1552 1553 1553 1553 1554 1554 1554 1554 1554 1554 1554 1554 1554 1554 1554 1553 1553 1553 1553 1553 1553 1553 1553 1552 1551 1551 1551 1550 1550 1549 1549 1548 1547 1546 1545 1544 1544 1543 1542
1551 1552 1552 1552 1553 1553 1554 1554 1554 1554 1554 1554 1554 1555 1554 1554 1554 1554 1554 1554 1554 1554 1554 1554 1554 1554 1553 1553 1553 1552 1552 1552 1552 1551 1551 1550 1549 1548 1547 1546 1545 1545 1544
1551 1552 1552 1552 1553 1553 1554 1554 1554 1554 1554 1554 1554 1554 1555 1555 1555 1554 1554 1554 1554 1554 1554 1555 1555 1555 1554 1554 1554 1554 1553 1553 1553 1553 1552 1552 1551 1550 1549 1548 1547 1546 1546
1551 1551 1552 1552 1553 1553 1554 1554 1554 1554 1554 1554 1554 1554 1554 1555 1555 1554 1554 1554 1554 1554 1555 1555 1555 1555 1555 1555 1554 1554 1554 1554 1554 1553 1553 1553 1552 1551 1551 1549 1549 1548 1547
1550 1551 1552 1552 1552 1553 1553 1554 1554 1554 1555 1554 1554 1554 1554 1554 1555 1555 1554 1555 1555 1555 1555 1555 1555 1555 1555 1555 1555 1555 1555 1555 1554 1554 1554 1553 1553 1553 1552 1551 1551 1550 1549
1549 1550 1551 1551 1552 1552 1553 1554 1554 1554 1554 1554 1554 1554 1554 1554 1555 1555 1555 1555 1555 1555 1555 1555 1555 1555 1555 1555 1556 1556 1556 1555 1555 1554 1554 1554 1554 1553 1553 1552 1552 1551 1550
1548 1549 1550 1550 1551 1552 1552 1553 1553 1554 1554 1554 1554 1554 1554 1554 1554 1554 1555 1555 1555 1555 1555 1555 1555 1555 1555 1555 1556 1556 1557 1557 1555 1555 1554 1554 1554 1553 1553 1552 1552 1552 1551
1546 1547 1548 1549 1550 1551 1551 1552 1552 1553 1553 1553 1553 1553 1553 1553 1554 1554 1554 1554 1554 1554 1554 1554 1554 1554 1555 1555 1555 1556 1556 1555 1556 1556 1555 1554 1553 1553 1553 1552 1552 1552 1551
1544 1545 1547 1548 1549 1549 1550 1551 1552 1552 1552 1552 1552 1552 1552 1552 1553 1553 1553 1553 1553 1553 1553 1554 1553 1553 1554 1554 1554 1554 1555 1555 1555 1555 1555 1554 1553 1553 1552 1552 1551 1551 1550
1542 1543 1545 1546 1547 1548 1548 1549 1550 1551 1551 1551 1551 1551 1551 1551 1551 1552 1552 1552 1552 1552 1552 1552 1552 1552 1552 1553 1553 1553 1553 1553 1554 1554 1554 1554 1553 1552 1551 1551 1551 1550 1550
1539 1541 1542 1543 1545 1546 1547 1547 1548 1549 1549 1549 1549 1549 1550 1550 1550 1550 1550 1550 1550 1550 1550 1550 1550 1550 1550 1551 1551 1552 1552 1552 1552 1553 1552 1552 1552 1551 1550 1550 1550 1549 1549